Wind_Speed
12 12 12 12 12 13 12 12 12 12 12 12 12 12 12 12 12 12 12 12 12 12 13 14 14 15 15 16 16 16 18 21 20 16 14 16 14 9 6 5 5 6 6 8 9 7 6 9 10 13 11 8 5 4 7 7 4 4 3 4 5 5 7 8 9 6 3 3 4 6 6 5 4 2 2 6 14 13 12 12 12 13 13 16 23 31 30 27
12 12 12 12 12 12 13 12 12 12 12 12 12 12 12 12 12 12 12 12 12 12 12 13 14 14 15 15 15 15 19 21 19 19 20 16 13 14 11 10 12 9 6 10 13 11 7 7 9 10 6 4 5 4 5 4 5 4 3 5 5 7 9 10 11 11 8 4 5 6 3 3 4 3 2 3 12 12 12 11 13 16 17 20 23 27 29 29
12 12 12 12 13 13 12 12 12 12 12 13 12 12 12 12 12 13 13 13 13 13 13 13 14 14 14 15 14 14 18 18 13 13 11 7 12 20 18 16 16 12 10 12 14 13 11 9 11 9 5 5 5 5 5 4 4 5 4 4 6 8 10 12 13 14 11 3 4 4 2 1 3 1 1 5 12 11 10 9 11 14 16 19 17 20 25 26
12 13 13 13 13 13 13 13 13 13 13 13 13 13 12 12 12 13 13 13 13 13 13 13 13 13 14 14 12 13 14 11 5 7 4 3 5 14 20 20 16 13 11 13 14 14 15 13 12 10 6 5 5 6 6 5 4 4 5 6 8 8 10 14 14 13 11 4 4 2 2 2 4 1 2 5 9 8 7 9 13 14 15 18 18 17 18 19
12 13 13 13 13 13 13 13 13 13 13 13 13 13 12 12 12 13 13 13 13 13 13 13 13 13 13 12 11 11 9 3 0 2 1 2 1 6 17 20 17 14 12 13 13 13 16 13 10 9 7 5 5 5 6 7 6 4 6 9 12 10 12 15 12 11 8 7 7 5 5 4 6 4 4 6 1 6 8 12 15 15 14 15 17 15 15 14
12 12 13 13 13 13 13 13 13 13 13 13 13 13 13 13 12 13 12 13 13 13 13 12 13 13 12 12 9 6 3 1 4 4 1 1 3 4 11 16 17 14 11 12 12 11 11 10 9 7 5 5 6 6 7 9 7 6 6 8 11 11 12 13 12 8 4 5 6 6 8 6 5 5 5 5 3 7 10 15 17 16 15 14 14 13 13 13
13 13 13 13 13 14 14 14 14 14 13 13 13 13 13 13 12 12 12 12 12 13 13 12 13 12 12 12 5 1 1 6 12 8 4 2 3 5 8 12 15 13 11 12 10 9 7 8 9 7 5 6 7 8 9 9 9 9 8 8 10 10 12 12 12 8 1 1 2 3 8 8 3 2 5 6 2 10 12 14 18 17 16 15 13 12 11 11
14 14 14 14 14 14 14 14 14 14 14 14 13 13 13 14 13 12 12 12 12 12 12 11 12 10 11 11 3 1 3 10 14 8 8 5 5 7 9 11 13 14 13 13 11 9 7 8 9 7 5 6 6 8 9 9 9 9 9 10 9 9 12 11 10 9 5 4 3 2 5 9 4 2 5 3 10 14 12 14 16 16 16 14 12 11 10 9
14 15 14 15 15 15 15 15 15 15 15 15 14 14 14 14 14 13 12 12 12 12 12 11 11 9 7 5 2 3 6 8 8 9 10 7 6 8 9 10 14 15 12 13 14 12 8 7 8 7 6 7 7 8 9 7 6 7 9 10 9 10 11 11 11 11 7 3 4 3 5 8 6 3 5 1 13 13 12 15 14 15 15 13 11 10 10 10
15 15 15 15 15 15 15 15 15 15 15 15 15 15 15 14 14 14 13 12 12 12 11 10 9 8 6 4 2 2 7 4 7 10 8 7 8 9 10 10 14 16 11 12 14 13 9 8 9 7 7 7 6 7 8 7 6 7 10 10 11 12 10 11 13 10 6 2 3 1 4 7 5 1 4 4 13 15 12 14 13 13 13 12 11 9 9 10
15 15 16 16 16 16 16 16 16 16 16 16 16 16 15 15 15 15 14 13 12 12 9 7 7 6 6 5 2 4 9 5 5 5 6 9 10 11 11 11 14 16 12 10 13 16 15 15 12 5 5 4 5 8 8 8 8 9 11 10 10 11 11 12 13 10 6 3 4 2 7 8 4 4 6 6 11 17 15 13 13 12 11 12 11 9 8 7
16 16 16 16 16 16 17 17 17 17 17 17 17 17 16 16 16 17 17 14 12 11 8 6 5 4 6 5 6 14 16 12 11 10 8 11 8 9 9 12 16 16 15 10 12 21 21 20 15 7 5 3 4 6 6 9 10 10 10 9 11 10 9 11 10 9 7 3 6 6 7 8 5 5 9 9 7 14 16 14 13 12 11 12 11 9 7 7
16 16 16 16 17 17 17 17 17 18 18 18 18 18 17 16 17 18 17 15 12 10 7 5 3 3 5 3 11 22 23 21 20 20 14 11 7 9 9 12 17 15 17 15 16 22 21 21 16 8 6 4 4 3 7 9 8 8 7 5 7 7 7 7 5 7 7 5 7 6 5 7 7 9 10 9 8 11 15 14 13 12 11 11 10 8 6 8
16 16 17 17 17 17 18 18 18 19 18 19 18 18 18 17 18 17 17 15 11 7 3 3 2 3 3 6 17 24 21 21 22 24 20 14 11 13 14 15 18 19 20 21 21 21 18 18 12 5 5 4 4 5 9 9 5 4 6 4 4 4 5 5 5 7 8 6 9 7 4 6 8 10 11 9 8 10 14 14 14 13 11 11 9 9 8 8
16 17 17 17 18 17 18 18 19 20 20 20 19 18 18 17 16 16 16 12 8 5 3 4 4 4 3 8 18 19 12 14 20 24 21 15 14 13 15 17 18 20 19 19 19 18 17 14 7 4 3 4 5 6 6 5 5 3 5 5 4 5 5 6 7 8 9 7 9 8 4 6 7 8 10 9 11 10 12 13 13 14 14 12 10 9 9 8
17 17 17 17 18 18 18 19 19 20 21 21 20 19 18 17 15 15 13 8 5 2 2 3 7 8 3 6 10 12 8 11 15 18 15 15 15 13 16 18 15 14 14 16 16 14 14 9 3 2 2 2 4 4 4 5 5 3 4 5 4 5 4 5 8 10 12 8 9 10 5 4 5 8 11 10 14 11 10 12 12 16 15 12 10 9 9 8
17 17 17 17 18 18 19 19 20 21 22 22 21 19 18 15 14 14 11 5 3 2 5 5 5 6 5 9 10 9 9 12 14 16 16 15 16 16 15 12 10 10 11 13 14 9 8 5 1 1 1 3 3 3 4 5 5 4 4 5 5 6 5 5 6 9 13 10 10 12 9 6 5 9 13 10 14 12 9 11 11 15 14 12 11 10 10 9
17 18 18 18 19 19 19 20 20 21 22 22 21 20 18 14 13 12 7 2 1 1 6 8 6 2 5 9 7 7 10 14 18 18 18 17 17 19 16 9 7 8 7 7 8 6 3 2 2 2 3 4 4 4 5 6 5 5 5 5 5 7 8 8 7 7 12 12 12 11 10 11 9 10 12 8 12 13 11 11 10 15 16 13 11 11 10 9
18 18 18 19 19 20 20 20 20 21 22 23 22 19 15 11 7 6 4 2 2 1 4 5 5 3 4 6 8 12 11 10 18 15 16 19 17 17 17 11 6 6 5 3 4 6 4 2 3 4 5 5 7 8 8 7 7 9 10 7 6 7 8 11 12 12 11 10 13 13 10 13 13 11 12 11 8 8 8 9 9 12 14 11 10 10 10 10
18 19 19 19 20 20 20 20 20 21 22 23 22 15 7 5 3 0 2 5 6 7 8 7 9 8 9 9 11 18 10 9 14 10 14 18 16 12 11 9 5 5 5 4 5 5 5 4 5 6 6 7 8 10 10 10 10 11 11 8 8 7 6 10 12 14 13 8 13 14 10 13 15 12 13 13 7 6 8 10 9 11 12 10 11 10 9 10
19 20 19 19 20 21 20 20 21 21 20 20 17 9 2 3 3 2 3 6 12 14 14 14 13 13 15 13 16 18 10 4 8 8 14 18 15 9 6 6 5 4 5 6 5 4 5 6 7 8 8 9 10 10 11 12 13 11 8 7 8 7 7 9 12 13 11 7 10 13 10 11 13 12 13 12 8 9 9 12 11 13 14 10 12 11 10 10
20 19 20 20 20 21 21 21 21 21 21 17 10 3 6 9 10 11 10 7 10 12 15 18 17 17 18 20 24 20 12 7 7 7 12 17 12 6 5 6 5 4 5 6 5 3 5 7 9 9 9 10 11 11 10 12 12 10 7 6 6 7 7 9 14 16 10 5 8 14 10 8 10 11 13 11 8 7 7 11 11 14 15 11 13 12 11 13
20 19 21 20 21 22 20 20 22 22 20 14 8 8 9 12 13 17 12 4 11 12 12 16 17 16 17 18 22 20 13 9 8 8 14 15 8 7 6 5 7 6 6 7 6 4 4 7 10 10 9 10 11 11 10 9 8 8 6 5 6 8 7 5 10 14 7 3 7 12 7 4 6 8 10 10 7 6 7 10 10 13 16 15 14 12 13 16
20 20 20 20 22 21 19 23 21 16 14 12 13 14 15 16 16 17 8 1 9 12 12 18 15 13 17 18 17 15 11 9 7 8 16 16 7 7 6 5 8 7 6 9 10 9 8 9 10 11 12 12 11 10 10 7 6 7 7 7 6 8 9 7 8 9 6 4 3 9 4 4 4 5 7 7 3 4 6 9 7 9 15 14 12 12 14 17
20 21 20 21 22 21 21 20 13 11 14 10 14 19 19 16 17 12 6 1 5 8 10 13 10 12 21 20 15 12 9 9 9 6 12 17 11 7 6 6 6 7 9 11 11 9 11 12 9 11 13 14 11 9 9 7 4 5 6 8 8 10 12 10 10 9 6 6 3 6 4 4 5 3 5 6 6 5 3 7 7 8 14 14 13 13 14 15
21 20 21 21 20 22 20 10 9 17 16 9 10 20 18 12 12 10 5 1 4 6 6 5 6 9 15 13 11 11 8 8 10 10 10 17 16 8 5 5 3 7 9 10 8 5 9 12 10 12 14 14 12 9 11 8 4 3 4 5 7 10 13 11 9 7 2 3 4 3 5 2 5 4 5 6 6 8 6 7 7 10 15 14 13 14 14 14
21 20 20 20 19 20 12 6 15 18 9 8 14 21 18 16 15 10 4 1 5 5 4 1 2 5 7 10 12 10 6 4 9 13 12 17 17 7 6 5 3 7 7 6 5 3 8 12 11 12 11 10 10 8 10 8 5 4 4 5 9 10 12 10 6 5 3 3 5 0 6 2 4 5 6 7 7 8 8 6 8 13 16 15 13 14 15 15
22 20 21 21 19 15 10 12 16 12 6 10 14 17 18 18 15 7 3 0 5 3 2 0 1 3 3 8 12 9 5 3 5 9 12 20 18 7 6 8 6 8 8 6 5 5 8 11 10 10 6 5 6 6 6 6 3 4 3 6 11 11 12 10 5 5 3 2 5 3 5 3 3 6 6 7 8 8 7 5 12 18 18 15 14 15 14 14
23 23 22 22 20 12 8 13 12 8 10 12 12 16 18 16 10 3 2 1 3 2 1 1 1 3 2 5 8 6 6 4 3 7 10 17 18 7 4 9 9 10 9 6 6 7 6 7 9 8 6 5 4 4 6 5 3 5 6 8 9 10 11 9 6 4 1 2 5 4 3 3 3 7 4 5 8 8 6 5 13 18 18 16 16 15 14 12
25 24 23 21 17 9 5 11 13 10 16 13 12 16 15 10 4 2 1 2 3 3 1 1 0 4 5 5 6 6 7 6 5 5 7 10 13 7 1 4 8 8 9 7 8 9 8 6 6 6 5 4 3 0 3 4 6 6 7 8 7 8 8 6 4 3 4 1 5 3 1 3 1 6 1 2 5 5 1 7 14 15 15 16 16 14 13 11
26 25 23 19 15 8 4 7 9 10 14 13 13 13 8 3 2 2 2 2 4 5 2 1 3 7 7 6 5 6 8 8 7 6 6 7 7 6 1 3 4 4 5 5 6 10 11 7 3 3 5 3 2 3 3 7 9 6 5 5 3 5 5 4 2 2 3 3 5 5 4 4 3 5 1 4 2 4 6 11 17 15 14 15 13 12 12 10
26 25 22 19 16 13 10 8 6 8 10 12 11 7 2 2 1 3 2 3 4 3 2 1 5 6 8 8 6 7 8 7 7 7 5 7 6 5 5 4 3 2 4 4 3 7 8 7 5 3 3 4 2 4 5 6 6 6 5 4 2 2 3 2 3 3 3 4 5 6 7 5 4 4 2 7 7 9 9 13 19 16 14 14 12 12 11 10
26 25 22 18 14 15 14 10 6 6 9 11 8 3 2 2 2 5 4 3 4 3 7 8 6 2 4 6 5 5 6 6 7 6 4 6 6 5 8 9 7 4 3 4 4 4 4 5 7 5 2 4 4 4 4 4 5 7 6 4 4 1 1 2 3 2 2 4 7 7 6 4 2 2 3 8 8 11 14 16 18 16 13 13 11 10 10 10
26 22 17 12 11 13 11 6 3 3 9 8 3 1 1 2 3 4 5 5 7 11 12 12 9 6 6 5 3 2 2 5 7 6 5 5 4 4 6 10 11 6 3 3 4 3 3 4 6 6 3 6 7 7 6 5 4 5 5 4 4 4 2 3 2 3 3 3 5 7 5 3 2 2 1 7 9 11 15 16 16 15 13 12 10 9 8 8
23 17 12 9 10 10 7 5 3 1 6 4 1 1 3 3 3 2 4 5 7 10 10 12 12 7 6 4 6 7 6 3 6 3 5 6 6 5 4 7 11 9 4 3 4 3 3 4 6 9 8 8 9 9 8 6 5 2 3 4 4 4 4 2 2 4 3 1 2 2 2 1 3 2 1 10 13 13 14 16 15 14 13 11 9 8 7 5
20 12 8 8 9 6 6 7 5 4 3 1 0 3 4 3 4 3 4 6 7 8 10 12 11 5 3 3 4 6 7 5 2 3 3 3 5 6 6 5 9 10 7 3 3 3 3 5 4 7 10 11 10 9 7 5 3 2 1 4 6 6 5 3 2 1 4 2 2 1 0 3 1 2 6 10 14 15 14 14 15 12 11 10 8 7 6 5
17 10 7 11 11 9 9 9 10 9 3 1 1 3 3 4 6 6 7 9 11 11 10 8 6 4 2 3 4 4 5 6 5 5 2 2 1 4 4 3 5 10 12 7 4 3 2 5 6 3 6 9 9 9 8 8 6 3 2 4 4 5 2 3 1 1 3 1 2 1 3 2 3 1 5 8 8 14 16 13 13 11 9 8 6 5 6 5
13 9 9 9 7 9 9 10 11 8 2 1 4 4 4 5 7 9 10 11 12 11 8 5 4 3 2 2 5 7 4 5 7 7 2 1 1 1 3 4 7 5 5 7 6 3 0 2 6 4 3 5 5 8 7 7 5 5 4 3 2 3 2 1 1 3 1 2 1 1 2 4 3 1 2 3 4 8 15 13 12 10 7 5 4 5 6 6
6 4 5 1 6 8 6 6 6 4 1 2 3 3 4 6 8 12 13 12 11 8 7 6 4 3 3 3 5 8 9 2 4 3 1 1 2 1 4 2 6 7 9 6 4 4 3 2 5 5 3 4 2 4 6 5 6 5 3 2 2 3 4 1 1 3 3 1 1 1 2 2 2 5 3 6 2 5 12 12 11 9 6 5 4 5 5 5
3 2 3 2 6 4 1 4 4 1 2 4 3 4 6 7 9 12 12 12 8 5 5 5 6 5 3 5 5 7 10 6 3 2 0 2 3 3 2 2 4 8 11 9 4 1 1 4 3 5 5 4 2 2 4 4 5 4 3 3 2 1 3 3 1 2 4 3 2 2 2 2 3 6 4 8 6 7 10 11 10 8 7 6 4 5 5 4
3 2 2 4 6 3 4 5 3 2 3 4 4 7 8 8 9 9 10 11 8 5 7 6 6 6 4 3 5 5 8 7 1 3 1 1 1 2 1 1 3 8 9 7 6 4 2 2 4 2 2 0 1 5 5 2 3 4 5 4 4 4 4 3 2 3 3 4 4 5 2 2 4 5 3 6 6 7 9 10 9 7 6 6 4 5 5 4
3 1 3 7 5 4 4 2 2 3 3 4 5 8 9 8 8 9 12 13 8 4 5 4 5 7 4 2 4 4 5 6 2 2 2 2 2 2 1 3 4 7 6 3 3 2 1 0 1 2 3 3 1 7 8 9 10 6 2 3 3 5 5 3 3 4 2 3 1 4 3 2 4 5 4 7 7 7 7 8 8 6 5 5 5 4 5 5
2 2 5 8 7 7 4 1 4 2 2 4 6 9 10 8 8 9 10 12 8 4 6 6 6 7 5 5 6 6 6 6 3 1 4 4 4 4 1 5 5 6 4 1 3 4 2 2 2 1 3 2 4 8 9 10 10 5 3 3 1 2 4 5 5 4 3 1 1 4 2 2 1 3 4 8 9 9 8 6 4 6 5 5 5 5 6 6
3 3 4 7 10 8 2 2 3 4 4 5 7 8 8 6 7 8 9 11 10 6 5 5 6 8 7 7 7 8 9 7 1 4 3 1 2 5 4 4 4 3 2 2 1 2 1 2 2 2 3 4 5 6 7 7 6 2 4 7 5 6 4 2 3 4 3 2 3 5 2 1 2 2 6 9 9 11 10 5 2 6 7 7 7 7 7 7
3 2 2 3 5 3 2 1 3 4 3 5 6 7 7 6 7 10 10 9 10 9 6 4 5 7 7 8 8 9 9 9 4 3 4 1 1 5 6 7 6 2 2 2 2 3 1 1 2 4 3 2 1 1 2 3 3 2 6 10 9 10 10 3 3 4 2 1 2 4 4 4 4 5 8 8 6 9 9 4 4 8 9 10 10 9 8 8
3 2 1 1 1 3 3 2 4 3 3 4 4 5 7 6 6 9 9 7 9 12 9 6 7 7 6 8 8 8 9 11 9 5 2 2 1 2 2 4 6 4 1 2 4 4 3 3 3 3 1 3 3 2 0 0 2 3 8 13 12 11 10 6 3 3 3 2 4 2 6 10 7 6 8 6 6 8 9 7 8 9 10 12 12 12 11 10
2 1 1 1 2 3 3 4 4 3 3 3 1 3 6 6 5 7 7 5 7 10 8 7 9 9 8 8 5 6 10 10 8 9 7 5 3 2 2 3 0 1 2 3 3 3 4 2 2 3 4 3 4 4 3 4 4 6 9 12 12 12 11 9 4 1 5 5 2 0 8 11 7 5 8 7 6 8 9 9 9 8 10 12 12 13 14 14
1 1 1 1 1 1 1 2 3 3 5 4 1 3 5 7 6 5 6 6 6 8 6 5 10 12 12 9 5 4 9 8 7 7 6 6 5 3 3 5 4 6 5 2 2 3 3 2 2 2 5 6 1 4 5 5 4 6 8 10 11 12 11 9 4 1 5 6 4 5 9 9 6 7 8 6 7 9 10 10 9 10 12 13 13 15 14 14
2 1 2 2 1 2 3 2 1 3 5 4 3 4 5 7 7 7 6 5 5 7 6 4 8 11 11 10 6 4 6 5 4 5 5 5 7 4 2 2 5 10 9 2 3 4 2 1 3 6 7 7 3 3 7 8 1 5 6 9 10 10 10 10 7 3 9 11 11 13 14 9 4 6 7 6 7 10 10 10 11 12 13 13 14 14 13 14
2 2 2 2 3 3 3 2 3 3 4 4 3 4 5 5 7 8 6 4 3 6 7 8 8 7 7 9 7 5 6 3 3 5 4 5 5 3 1 1 2 3 5 1 4 5 3 3 3 3 6 4 1 2 2 6 5 1 5 8 7 7 8 9 8 6 8 11 13 17 16 8 2 4 6 6 8 11 11 11 11 10 11 12 13 13 12 14
7 6 5 3 4 4 1 1 3 4 3 3 1 1 3 3 4 6 6 4 6 6 7 9 10 6 4 7 7 5 7 7 7 8 7 5 5 6 5 2 5 3 1 1 3 2 2 3 5 3 1 1 3 3 6 5 5 4 8 10 9 4 5 4 3 4 4 7 12 14 11 6 3 5 6 8 11 14 13 12 11 10 11 12 13 12 12 13
11 9 8 3 3 4 2 4 5 4 1 1 2 3 2 2 2 3 3 5 7 7 7 8 8 6 4 5 6 7 9 10 10 9 7 6 7 7 7 7 3 4 4 2 1 2 3 3 2 3 2 2 4 4 5 5 6 5 5 9 10 2 5 5 4 5 4 4 6 7 5 4 4 6 8 11 14 14 12 10 10 10 11 12 11 11 11 11
Wind_Direction
352 351 350 349 349 348 346 343 341 336 332 327 321 316 312 311 309 308 307 305 307 306 310 313 314 318 316 318 318 319 323 316 311 298 263 262 268 251 222 219 266 272 235 230 225 221 207 201 223 234 242 250 236 239 248 252 237 213 204 225 248 253 254 259 260 269 313 354 10 355 13 19 358 49 27 80 87 85 80 71 69 68 88 107 117 130 138 139
351 350 350 349 349 347 346 344 342 339 336 331 326 320 315 311 308 307 306 304 304 303 308 310 313 316 315 319 321 325 325 314 300 280 267 268 257 239 238 243 250 253 226 208 213 217 203 192 213 223 231 241 238 231 222 233 235 219 206 219 231 243 253 265 275 288 304 332 11 355 14 347 340 60 340 78 101 99 91 86 89 90 97 106 115 128 136 139
350 350 350 349 348 346 345 343 341 340 337 336 331 325 320 314 310 307 305 305 304 306 307 309 313 315 318 321 325 332 323 312 295 269 283 296 244 233 230 237 244 242 233 215 206 212 217 204 203 212 223 234 242 229 211 214 228 221 210 232 241 240 256 264 268 279 285 311 31 352 16 317 316 109 179 94 97 100 106 112 105 106 116 120 126 132 137 141
349 350 349 348 347 345 344 342 341 340 338 337 334 331 324 316 312 308 306 304 304 307 308 312 316 316 321 322 327 335 319 307 281 248 297 358 239 222 216 225 235 237 239 225 209 216 231 223 205 208 222 228 238 237 229 214 210 219 202 226 251 253 266 263 264 282 296 357 52 322 1 350 307 261 124 77 93 112 127 135 127 127 129 131 137 140 143 146
350 349 349 348 347 344 342 341 340 339 338 337 335 333 327 320 314 309 307 305 306 307 309 312 314 317 320 323 334 337 326 324 187 210 44 40 155 194 206 216 223 232 240 223 215 230 245 245 223 210 219 231 233 237 243 226 211 237 228 225 240 252 266 270 281 301 322 14 29 8 349 345 336 344 26 17 84 156 148 136 133 136 136 137 139 143 148 148
349 350 349 347 346 343 341 341 340 339 337 335 334 333 330 325 315 312 309 305 306 305 308 310 312 319 320 329 338 332 332 286 307 317 341 93 90 141 189 209 219 229 232 211 216 240 250 252 242 220 214 229 233 236 244 232 215 235 254 238 236 238 252 271 282 291 348 7 14 6 320 337 4 342 360 336 258 161 140 129 131 136 137 134 134 145 151 150
349 350 347 346 345 342 342 340 339 337 335 334 332 331 330 327 318 313 309 305 306 304 305 307 313 320 327 342 346 259 234 260 287 292 232 167 108 137 173 201 214 215 206 199 211 233 242 248 244 230 217 221 231 241 251 248 230 231 248 248 247 246 250 265 270 266 299 320 25 27 308 316 348 329 341 335 102 132 131 124 128 133 135 135 139 153 157 155
349 348 345 344 343 341 341 338 337 336 334 333 330 329 328 327 323 315 309 307 305 304 305 307 315 322 335 351 356 226 241 257 275 256 195 174 142 146 164 187 201 198 193 199 210 219 235 248 238 230 233 229 230 236 248 260 250 238 240 244 249 254 259 267 272 272 256 208 156 148 273 288 294 356 330 357 109 129 134 123 125 131 134 138 149 155 158 153
347 346 344 342 341 340 339 337 336 333 332 331 329 328 325 325 325 319 312 309 306 305 304 307 313 319 340 344 324 299 260 246 244 208 182 178 169 162 169 181 191 188 192 207 217 227 233 247 240 225 234 246 246 244 245 253 255 247 244 244 243 247 257 267 270 275 271 214 135 165 232 267 293 10 316 223 126 133 132 127 130 135 137 140 152 154 157 145
346 345 342 341 339 338 337 335 334 331 331 329 327 326 324 323 323 321 316 310 308 305 302 309 313 319 331 289 258 281 262 224 177 185 184 187 178 175 178 181 189 185 194 212 217 234 239 246 253 231 238 258 258 261 257 248 255 264 262 254 242 242 249 257 263 268 271 241 104 355 265 256 265 126 278 237 141 141 136 137 141 141 142 145 151 155 158 145
346 344 341 340 338 336 335 333 331 330 328 326 325 323 321 322 320 320 318 310 306 305 302 309 317 324 312 283 244 230 250 234 181 192 192 191 187 188 183 181 192 189 198 217 219 233 241 248 259 250 232 255 267 270 273 269 275 277 279 280 261 252 251 249 256 269 279 233 157 222 262 260 249 188 238 241 152 146 147 148 152 151 149 149 151 157 163 148
346 343 341 339 337 336 333 332 330 328 326 324 324 321 321 323 320 318 316 311 303 301 301 300 313 323 300 281 228 241 259 268 267 265 211 180 189 210 197 189 197 194 199 217 229 231 237 245 256 261 238 232 252 261 279 279 276 275 282 289 280 276 262 245 243 260 268 217 173 193 244 256 243 223 233 236 187 153 151 158 163 161 151 146 151 160 161 145
345 343 340 338 336 335 333 331 329 326 324 323 323 322 323 323 320 317 313 309 301 297 298 289 286 299 297 259 242 258 276 282 283 285 248 187 181 219 219 211 207 201 205 219 237 238 241 244 246 254 260 263 251 282 312 291 270 267 276 275 279 292 276 249 233 252 255 199 179 187 227 249 236 234 237 238 218 163 155 167 168 163 154 146 153 160 157 149
344 342 339 336 334 333 332 330 329 327 324 323 323 324 324 323 320 316 312 310 305 300 292 286 291 284 265 248 272 282 286 278 274 280 261 202 186 213 220 226 219 211 213 222 240 255 264 262 259 265 278 289 293 315 317 305 295 276 277 281 267 271 277 269 243 240 245 203 180 185 212 243 236 228 229 236 234 183 165 176 171 161 153 148 158 161 162 163
342 340 337 335 333 332 330 329 329 327 325 325 325 325 323 320 316 313 317 320 314 292 261 293 259 233 280 268 283 298 294 267 253 258 254 205 194 214 213 224 228 221 220 230 246 263 277 281 277 265 273 302 307 306 304 300 298 260 244 268 258 241 256 269 256 234 235 215 186 194 220 239 236 235 228 222 239 218 173 179 170 155 153 153 163 164 164 170
340 338 335 333 331 330 329 328 328 327 328 327 325 324 319 316 311 312 318 314 304 260 199 284 228 204 284 275 285 305 281 250 235 239 243 209 206 220 213 217 227 229 231 246 257 267 281 291 283 248 255 270 273 273 290 301 291 266 222 236 246 246 245 245 245 236 238 228 194 203 217 234 229 243 243 218 233 231 173 178 166 153 157 153 162 166 159 163
338 336 333 331 328 328 327 327 328 327 326 325 325 322 316 312 300 302 312 301 301 224 204 264 251 206 251 270 299 304 248 225 218 224 231 215 215 228 221 209 207 220 231 246 255 259 273 279 233 285 261 234 241 219 254 267 260 274 254 234 242 245 248 248 240 230 233 228 206 205 207 228 227 237 247 223 222 226 175 177 164 151 159 159 163 163 156 154
337 333 331 329 326 325 326 327 327 325 325 323 325 322 314 306 285 286 302 299 2 250 243 270 283 249 246 259 269 258 243 223 205 209 220 210 215 232 234 219 190 198 220 238 245 233 228 242 189 231 243 225 232 210 217 229 219 244 248 234 238 235 238 247 250 239 228 216 209 207 203 222 236 241 254 238 214 218 197 182 159 147 157 162 159 154 154 144
335 333 330 327 325 324 325 325 324 324 324 322 325 325 314 302 283 272 262 223 147 183 261 239 205 204 266 254 238 259 273 210 189 200 211 199 202 229 242 239 198 179 208 207 215 209 182 224 229 219 232 220 219 218 226 238 226 237 246 237 229 228 232 238 242 247 240 214 203 207 195 206 226 235 252 257 222 220 216 184 152 142 148 151 147 150 146 132
334 331 328 326 324 323 323 323 322 323 325 326 333 338 323 317 337 241 221 215 207 229 254 227 193 220 265 275 274 279 280 160 168 202 205 189 187 211 238 239 197 180 216 196 199 209 172 196 228 219 223 222 225 225 233 251 250 249 258 263 261 254 247 240 238 239 236 217 202 203 188 196 216 221 236 252 248 260 237 186 155 139 143 144 144 149 135 122
332 329 327 325 323 321 322 322 319 320 322 323 331 339 296 295 292 286 296 240 221 222 242 243 219 227 244 254 270 278 281 175 176 206 193 180 179 192 213 214 202 200 217 216 220 209 180 209 228 223 226 229 235 229 224 240 253 260 266 274 279 277 270 265 266 253 231 216 202 195 185 196 211 216 229 241 246 260 226 174 156 147 150 149 145 145 126 112
331 329 326 325 323 322 323 321 317 317 315 308 307 268 254 280 278 286 300 284 257 232 234 245 238 240 241 245 257 263 275 254 211 210 179 166 173 188 186 189 200 218 207 216 243 209 200 231 230 222 226 231 239 240 228 230 244 258 266 275 280 278 286 287 286 276 244 207 194 186 188 206 210 213 226 231 221 229 194 159 159 155 154 155 150 146 123 109
331 328 327 326 324 325 326 321 316 313 304 285 247 220 264 301 306 298 294 290 292 272 242 241 236 239 240 243 250 247 255 250 220 215 180 164 179 193 189 191 196 223 210 200 221 214 216 234 223 220 228 233 239 242 238 232 238 243 239 256 268 264 275 283 285 282 261 191 167 164 171 235 229 216 229 237 211 198 190 172 163 151 156 163 153 142 127 119
330 330 329 325 326 329 329 322 316 318 312 279 250 258 285 300 300 304 310 259 287 282 253 240 232 233 233 230 230 225 238 243 227 210 176 167 182 182 197 215 197 221 225 205 210 217 242 241 214 213 224 232 238 241 240 229 232 242 227 226 252 266 267 270 303 317 334 0 100 124 103 308 271 230 242 268 257 207 194 178 164 136 145 148 124 119 128 126
331 330 328 327 330 330 328 324 319 336 331 280 263 295 313 303 293 313 352 298 269 278 255 234 218 230 230 219 208 203 218 230 230 225 174 170 179 173 196 218 202 218 224 220 217 216 241 242 212 207 219 228 233 239 238 214 204 256 238 219 239 272 278 284 314 338 358 338 341 100 105 284 291 269 256 278 287 267 198 162 167 123 117 116 106 115 126 123
331 330 329 329 331 332 333 327 315 331 325 276 294 328 342 346 333 347 20 307 274 266 244 200 175 211 218 201 191 193 210 222 214 224 199 175 181 184 195 209 210 219 220 225 225 212 232 236 222 212 212 217 224 235 234 206 174 245 251 236 248 263 271 280 299 317 341 278 288 81 117 251 306 310 265 260 271 266 227 168 155 118 109 114 117 123 127 127
331 329 329 326 329 335 336 311 315 327 317 291 329 341 347 357 353 357 45 345 279 247 213 173 163 187 185 176 176 178 207 210 181 212 212 176 179 192 201 209 209 218 228 229 228 218 215 224 232 227 214 209 217 229 220 188 169 218 226 261 272 266 262 262 263 273 255 226 265 139 118 137 294 285 276 272 271 262 232 177 124 108 110 116 119 124 130 135
331 328 329 324 325 325 297 288 310 317 296 308 333 339 338 343 343 354 72 72 292 282 172 271 189 171 187 178 169 170 213 225 163 203 197 173 177 180 199 224 235 225 227 222 232 235 210 211 226 238 239 228 221 205 180 156 173 237 206 239 264 269 266 256 230 244 244 201 256 239 127 108 282 269 286 299 288 266 237 166 113 111 116 118 119 125 129 131
331 329 328 325 326 327 290 271 274 291 315 327 337 333 330 334 339 22 91 245 290 315 141 137 141 181 216 176 168 179 211 245 230 195 170 168 185 194 198 224 243 255 256 251 252 246 222 204 206 226 246 246 230 171 147 145 197 230 220 238 257 267 273 262 224 223 111 148 240 240 131 114 281 273 282 327 298 265 235 164 120 117 122 124 124 128 129 126
331 328 329 326 321 342 345 268 259 308 333 331 330 325 320 325 0 84 223 265 281 285 164 95 89 180 195 188 180 184 202 241 256 195 152 155 188 207 232 228 235 260 271 269 267 261 253 230 199 206 218 241 294 305 154 199 223 216 213 236 258 268 276 271 227 156 91 270 247 234 136 135 239 279 264 55 292 271 122 113 115 115 119 123 127 131 132 131
328 325 326 320 303 307 327 265 271 333 343 336 334 328 319 329 70 138 225 274 284 264 160 132 203 178 184 198 195 187 200 234 250 220 174 145 176 203 217 258 240 253 275 275 273 266 256 244 228 201 184 179 275 276 243 232 229 224 211 209 243 280 287 287 270 142 130 251 237 201 198 172 200 265 190 87 2 9 64 114 124 125 126 126 131 134 134 136
325 324 319 309 293 274 255 248 287 347 353 345 340 332 355 68 173 226 254 318 287 227 96 295 232 190 184 197 210 199 190 219 243 235 196 152 164 195 183 202 208 206 273 280 271 269 254 232 235 230 169 135 177 238 262 257 231 227 226 176 157 295 308 268 242 199 183 236 236 208 202 195 209 240 135 81 55 37 57 113 127 128 126 125 135 138 135 138
324 322 313 302 286 264 256 267 298 346 350 342 334 333 77 103 222 223 231 282 281 309 347 321 293 285 214 202 223 221 189 206 222 215 197 165 172 194 189 205 213 184 218 250 253 266 264 249 245 236 171 142 189 221 232 250 233 218 212 153 150 175 2 274 238 214 217 233 244 239 219 210 240 295 68 80 77 65 70 97 118 122 120 124 137 136 132 140
325 321 310 296 280 267 263 267 271 322 324 321 332 53 109 199 242 235 233 250 277 300 311 305 304 299 251 205 186 237 209 231 234 197 172 161 183 216 193 204 222 216 199 234 247 240 241 254 244 237 202 159 195 227 226 242 251 202 175 144 167 166 161 248 200 177 228 255 254 247 230 189 160 219 129 88 74 72 86 98 107 114 120 128 134 131 134 143
329 325 307 284 274 267 240 208 184 267 303 311 26 146 181 218 259 266 258 252 264 285 296 304 305 287 263 219 181 186 178 220 294 280 187 178 189 220 205 195 213 218 206 209 230 246 255 251 222 220 215 176 189 222 231 261 293 265 163 153 204 199 170 219 201 167 173 69 340 264 245 221 169 203 55 82 69 60 86 105 107 115 128 133 132 133 136 133
332 333 304 271 262 245 191 172 162 186 252 336 88 227 214 235 258 255 282 284 280 297 314 318 311 293 310 316 217 201 168 159 303 304 245 198 183 213 224 201 200 204 201 194 219 230 236 265 264 227 217 200 192 203 208 216 243 289 249 187 223 220 157 134 261 299 90 101 309 11 10 317 9 1 15 63 78 69 75 96 109 117 125 125 130 135 128 120
333 332 286 264 257 232 199 186 179 183 202 23 227 245 247 253 261 264 286 299 300 310 323 320 309 312 336 327 299 266 179 159 177 205 242 340 264 247 249 257 233 210 205 206 239 269 228 257 288 274 235 225 200 193 210 207 175 155 238 228 229 223 164 93 177 312 54 148 263 148 156 46 38 329 6 24 57 82 82 88 101 106 112 119 123 116 107 105
327 316 285 274 240 199 199 204 192 178 155 296 253 261 273 261 268 279 289 298 303 312 318 305 298 316 310 292 318 309 257 180 172 190 211 11 295 8 54 325 294 268 235 228 232 263 53 280 293 294 263 259 208 182 213 238 210 178 189 210 163 165 198 21 144 188 178 191 207 202 179 74 50 288 61 22 332 80 89 86 86 85 87 98 96 84 80 81
311 297 292 317 131 153 183 192 186 170 142 249 253 262 269 260 262 269 273 280 288 289 285 282 286 306 313 299 315 318 309 281 152 175 304 20 293 343 69 336 300 334 342 311 242 207 147 145 284 295 316 324 318 178 196 236 243 218 164 166 169 151 167 178 179 170 151 170 188 353 334 35 354 310 67 122 164 87 93 92 88 87 80 75 73 74 69 63
263 257 282 148 140 164 186 149 152 150 202 230 247 252 263 269 263 258 258 262 269 275 273 284 304 309 313 321 329 331 327 331 112 111 272 187 239 295 44 46 302 322 338 347 358 310 167 148 215 291 334 352 336 258 216 195 213 212 158 181 210 139 144 147 242 196 145 135 143 122 327 299 289 322 34 103 108 93 97 96 94 96 93 89 82 81 80 65
253 296 268 168 157 150 97 114 155 179 215 240 252 257 268 279 281 290 299 290 274 269 270 275 307 300 263 320 348 337 323 323 75 101 83 162 213 307 359 44 318 332 341 353 13 5 337 164 180 238 321 113 246 296 306 339 282 222 170 183 184 137 128 120 284 255 151 123 149 143 143 240 268 305 27 88 90 87 92 94 96 93 91 94 86 85 87 73
245 294 174 157 159 159 124 127 236 200 209 248 259 266 275 284 293 314 321 308 286 273 291 300 321 309 287 336 335 303 304 315 339 95 135 154 181 233 316 27 2 349 342 313 333 341 286 217 159 195 221 181 250 317 335 356 334 304 183 181 171 143 130 127 244 257 52 45 99 111 110 208 267 313 24 70 72 72 72 81 92 92 90 96 87 78 80 71
251 307 161 160 180 185 161 317 309 297 261 284 289 283 284 292 306 316 319 317 318 346 356 343 326 325 340 358 339 323 315 299 297 129 171 181 183 192 80 54 33 360 352 279 308 310 300 357 11 316 299 335 16 346 351 8 358 344 346 342 347 166 159 153 184 187 122 100 125 92 88 214 270 347 34 60 62 67 59 43 71 96 97 98 89 69 57 55
294 300 178 187 203 196 155 359 319 310 311 330 328 314 308 312 324 329 327 331 335 341 344 332 334 340 343 350 347 330 317 299 278 112 139 195 170 168 149 109 91 30 332 211 267 314 316 15 32 41 358 346 3 358 352 360 7 18 329 335 10 28 28 100 139 119 126 201 156 126 152 189 136 83 69 62 56 66 62 19 6 87 88 90 92 76 53 44
301 269 187 195 200 164 85 14 321 317 337 354 335 334 345 338 336 333 321 327 340 336 324 314 333 336 333 345 341 321 316 314 317 127 146 140 140 168 164 150 140 124 250 220 87 64 57 346 66 92 117 183 195 293 254 295 319 347 341 346 15 31 27 44 114 91 88 267 99 120 146 124 108 99 89 83 86 92 92 87 60 66 68 71 77 75 62 53
309 284 19 9 34 72 67 13 355 341 357 9 335 342 2 350 336 333 323 335 353 344 333 330 342 341 337 342 331 318 322 324 338 28 70 37 50 186 163 140 150 148 80 26 49 73 70 359 13 54 101 194 158 127 165 23 15 16 6 8 18 23 31 59 92 108 142 122 44 64 136 125 120 118 113 118 121 109 104 99 84 71 67 67 69 68 65 62
288 286 34 343 333 24 33 11 13 4 359 16 339 335 355 350 344 345 342 352 353 345 343 351 4 5 349 342 340 332 331 335 10 33 19 2 353 292 351 30 89 221 46 31 22 72 85 349 330 14 317 269 132 91 37 45 45 25 19 27 33 26 32 49 46 121 131 110 43 53 122 121 132 130 121 129 127 113 106 101 96 89 82 78 75 70 65 61
259 207 95 76 340 12 44 2 355 4 13 19 344 335 359 4 2 354 352 357 355 359 0 349 4 12 1 358 18 357 346 0 24 24 14 357 330 313 13 24 1 349 357 25 32 56 98 207 181 151 285 296 79 94 75 62 13 3 23 34 35 31 32 34 355 287 117 115 137 124 103 108 131 130 129 149 139 117 110 107 101 92 85 82 78 72 65 62
349 354 7 47 30 216 179 150 90 38 28 21 359 355 4 8 4 349 351 12 5 4 9 352 5 16 3 0 27 24 7 21 358 345 4 343 314 310 20 18 3 354 346 359 30 8 354 250 163 167 217 251 246 169 112 102 336 324 26 35 32 37 35 18 352 28 99 112 121 112 100 94 111 127 140 157 132 108 102 99 94 90 89 86 81 77 71 64
4 332 338 4 335 274 208 155 115 99 52 33 27 2 357 14 8 339 336 28 33 358 2 4 10 19 1 359 22 28 7 352 291 304 327 326 313 304 284 155 114 339 313 83 53 10 352 309 296 208 211 228 292 338 87 140 174 198 40 32 31 48 41 17 356 19 76 108 117 110 106 103 113 140 139 133 111 99 94 89 85 82 83 83 79 74 68 62
353 340 358 7 310 295 240 79 61 82 57 32 65 2 356 12 358 326 326 17 36 13 357 354 356 4 0 2 13 0 339 324 299 293 297 298 297 295 290 228 153 162 216 95 79 54 52 359 332 336 303 14 40 330 266 204 149 76 31 7 354 21 74 50 1 8 49 110 117 109 109 124 148 137 121 100 89 86 83 80 78 71 66 70 72 70 65 61
356 348 2 23 262 299 33 74 47 48 34 280 175 144 70 345 324 349 349 357 12 7 348 341 346 351 352 4 360 326 308 303 293 287 287 274 268 275 284 283 248 148 138 109 90 109 102 87 6 4 27 18 355 297 233 167 104 60 6 333 316 283 123 91 65 84 101 109 105 108 122 132 117 101 90 82 79 78 75 72 74 74 69 67 69 70 70 67
Height
800 799 798 797 796 795 794 793 792 791 790 789 788 788 787 787 786 785 784 784 784 783 782 781 780 779 777 776 774 772 771 768 765 766 764 752 747 750 750 751 752 754 755 756 757 758 758 759 760 760 762 762 761 759 756 753 751 756 765 773 777 773 764 752 745 742 738 734 729 722 717 721 724 719 712 714 726 732 736 737 734 732 731 734 739 744 749 753
800 799 798 797 796 794 794 793 792 791 789 788 787 787 785 785 785 784 784 783 783 782 781 780 779 778 776 775 773 772 770 767 765 762 753 744 746 748 748 750 752 753 754 755 755 756 757 758 758 760 762 762 760 756 756 752 751 757 763 770 771 763 752 742 739 737 735 734 729 722 719 719 721 722 716 723 737 736 742 745 740 741 742 742 744 747 750 752
799 798 797 796 795 794 793 792 791 790 789 788 786 785 785 784 784 783 783 783 782 781 780 779 777 776 775 774 772 772 770 767 764 755 743 740 743 744 747 749 750 752 753 754 755 755 756 756 757 759 761 763 759 756 757 753 752 754 759 768 763 751 745 737 736 734 732 729 726 725 721 721 720 718 718 726 738 740 745 748 746 749 748 749 750 749 750 751
799 798 797 795 794 793 792 791 790 789 788 787 786 785 784 783 783 783 782 782 781 780 779 777 776 775 774 773 772 772 770 767 758 746 741 741 741 742 745 747 749 752 752 753 754 755 755 755 756 757 760 763 758 755 757 753 753 752 754 763 754 746 746 736 732 731 727 724 725 725 722 725 720 715 719 725 738 745 743 741 744 747 747 748 750 750 750 751
798 797 796 795 794 793 792 791 789 788 788 786 785 785 784 783 783 782 781 781 780 779 778 777 775 774 773 772 772 771 771 766 751 741 742 742 741 742 743 746 749 751 751 753 754 755 755 754 754 756 759 761 759 757 756 749 748 751 750 751 745 744 745 734 730 731 727 723 725 726 726 726 720 718 720 723 736 743 735 733 736 740 742 743 746 749 750 751
797 796 795 794 793 792 790 789 788 787 787 785 785 784 783 782 781 781 780 779 779 778 777 776 775 774 772 771 771 772 772 762 746 742 743 742 742 742 743 746 748 750 751 753 753 754 755 753 755 757 758 759 759 758 755 746 744 753 750 744 740 740 741 732 729 729 725 725 728 729 725 724 726 725 721 722 729 730 725 726 731 735 737 740 743 747 749 751
796 795 794 793 791 790 789 788 786 785 785 784 784 783 782 781 780 780 779 778 778 776 776 775 774 773 771 771 770 771 773 759 742 743 743 742 743 741 744 746 747 750 750 751 753 754 754 754 755 755 756 758 757 755 751 745 742 750 750 742 738 736 735 730 727 727 724 726 726 725 725 726 732 730 724 725 725 724 724 722 727 732 735 740 744 746 748 750
795 794 793 792 790 789 788 787 786 785 784 783 782 781 781 779 778 778 777 777 776 775 775 774 774 773 771 771 770 771 770 755 740 742 743 742 743 742 744 745 746 748 748 750 751 752 752 754 753 751 756 756 752 751 747 746 745 746 747 740 735 733 731 727 726 725 724 724 722 724 729 729 729 727 727 729 726 723 723 722 726 730 734 740 744 746 747 749
795 793 792 791 789 788 787 786 785 784 782 781 781 780 779 778 777 776 776 775 774 775 774 773 774 772 772 771 771 771 759 743 738 741 742 742 743 742 743 744 746 747 748 750 748 750 752 752 749 747 753 751 748 748 744 749 749 742 740 737 734 732 729 726 726 725 724 723 722 727 733 729 724 726 730 729 726 724 723 724 727 730 735 739 742 744 746 750
794 793 792 790 789 787 786 785 784 782 781 780 779 778 778 777 776 775 774 774 773 773 772 773 773 772 773 770 773 770 749 738 740 740 741 742 742 742 742 743 744 746 747 748 747 748 748 748 744 741 746 747 746 746 743 746 745 736 735 734 731 730 726 725 726 724 723 722 723 730 735 730 723 730 736 728 723 724 726 729 729 731 735 737 740 742 744 748
793 792 791 789 788 787 785 784 783 781 780 779 778 777 776 776 775 774 773 773 772 772 772 772 772 772 772 770 774 766 743 738 742 740 740 740 741 742 741 742 743 745 746 746 746 745 745 743 740 740 745 745 744 745 741 739 737 733 734 734 730 728 727 725 725 723 724 724 722 727 733 731 727 733 734 725 721 722 726 731 731 732 734 735 739 742 743 746
793 791 790 789 787 786 784 783 781 781 779 778 777 776 775 774 773 772 771 771 771 771 771 771 772 772 771 771 768 753 738 739 741 741 743 740 740 742 741 742 742 743 744 744 744 742 741 740 738 743 745 742 745 748 742 734 734 733 733 739 735 730 730 726 724 723 724 726 720 725 739 739 734 734 727 719 721 722 726 730 731 732 733 735 739 741 743 744
792 791 789 788 787 785 784 782 780 779 778 777 775 774 774 773 772 771 770 770 769 770 770 771 771 771 773 768 752 741 738 739 738 739 742 740 739 741 741 742 741 742 743 743 741 739 739 738 737 741 739 741 746 744 738 732 733 734 734 739 740 740 737 726 723 723 725 725 717 727 750 749 736 730 722 716 717 722 728 730 731 732 732 735 739 742 744 743
791 790 789 787 786 784 783 781 780 778 777 775 774 773 772 771 771 769 768 768 768 769 770 770 771 771 773 760 740 737 738 737 737 736 738 739 738 740 740 740 740 741 741 740 739 737 738 736 735 737 737 740 741 738 739 738 737 737 739 740 743 750 745 727 723 725 727 724 714 728 751 748 735 727 720 715 714 720 728 729 729 731 731 734 738 741 743 742
791 790 788 787 785 784 782 780 779 777 776 774 772 772 770 770 769 768 768 767 767 768 768 770 770 770 771 756 737 735 734 734 736 734 734 737 736 738 738 738 739 738 739 739 738 737 736 735 736 740 740 738 740 745 749 747 742 740 748 752 747 750 746 731 724 724 728 724 715 728 747 743 732 724 717 714 713 716 725 727 727 729 730 734 737 740 741 740
790 789 787 786 784 783 781 780 778 776 775 773 771 770 769 768 767 767 767 766 767 767 768 769 768 769 769 753 736 733 732 732 732 731 733 734 735 736 736 737 737 737 738 737 737 736 735 735 737 739 741 742 746 752 756 758 753 744 750 757 751 748 748 738 727 720 722 724 719 727 740 739 730 722 715 713 712 714 720 722 724 728 730 734 738 739 740 741
790 788 787 785 784 782 780 779 777 775 774 772 770 768 767 767 765 765 766 766 767 766 767 767 766 770 761 742 735 733 729 728 729 730 731 732 733 734 734 735 735 736 736 736 737 736 736 738 740 741 742 746 748 753 764 771 766 754 749 753 748 744 746 743 732 720 716 723 724 725 732 734 726 719 715 712 711 712 717 718 719 726 730 733 737 737 738 741
789 788 786 784 783 781 779 778 776 774 773 770 769 767 765 764 763 764 765 765 766 766 768 766 768 771 754 736 736 731 724 724 726 728 729 730 732 732 732 732 733 735 737 739 738 738 740 740 742 747 749 750 750 754 767 769 762 758 754 752 748 742 742 741 734 721 715 721 725 726 731 730 724 718 713 711 710 711 715 714 715 723 728 732 734 735 738 742
788 787 785 783 781 780 778 777 775 773 771 769 767 765 763 762 761 763 764 765 766 764 763 761 763 760 744 732 730 725 721 721 723 725 726 727 730 731 731 731 731 735 741 745 743 740 742 744 748 754 755 754 751 752 757 753 748 749 746 746 747 744 740 734 727 717 713 721 724 724 730 728 722 719 713 708 708 711 714 713 715 722 727 731 734 736 739 744
788 786 784 782 780 779 777 776 774 773 771 769 767 765 762 761 761 762 763 764 760 752 748 748 749 744 735 729 725 723 722 720 721 723 723 725 728 730 730 731 732 737 742 747 747 740 741 751 755 754 754 750 746 744 744 742 740 740 740 741 741 742 739 728 720 710 706 719 723 718 724 724 720 718 711 707 708 711 715 715 717 722 727 731 735 738 742 747
787 785 783 781 779 777 776 774 773 772 771 770 769 769 764 760 761 760 757 754 747 743 742 739 739 737 730 728 724 722 724 722 721 720 721 723 725 731 733 732 737 743 743 742 743 739 742 754 754 747 746 742 740 739 739 740 740 740 742 743 741 740 736 723 716 708 701 714 720 715 720 722 718 716 709 706 710 712 711 712 716 722 725 729 734 739 745 750
786 784 782 780 778 776 774 773 772 771 771 770 770 770 763 757 757 756 754 750 739 736 738 733 733 731 724 724 722 721 725 727 725 721 718 721 725 732 733 732 741 745 741 740 744 747 751 754 746 740 738 737 737 736 737 739 739 741 742 744 745 739 732 723 713 705 700 709 717 715 718 719 714 712 708 706 709 709 705 705 711 718 724 728 733 738 745 752
786 783 781 779 776 775 773 771 770 769 768 767 768 766 759 753 752 752 753 753 741 730 730 727 726 725 721 721 718 719 725 724 725 722 715 719 725 729 732 734 740 742 741 743 748 755 757 748 737 734 734 736 737 735 736 739 738 740 741 745 746 735 734 735 720 706 700 703 709 712 717 717 712 710 707 704 705 704 702 701 704 710 718 724 728 735 743 749
784 781 780 777 775 774 771 769 767 766 766 765 763 759 754 752 752 753 752 754 747 728 718 717 716 717 714 712 712 717 722 718 719 718 712 717 724 727 731 733 737 741 740 739 742 749 748 735 727 729 731 733 737 735 735 740 742 739 736 740 741 732 731 734 725 714 707 703 702 709 722 723 716 716 711 702 702 703 702 703 704 707 715 723 730 738 743 744
783 781 779 776 775 772 770 768 764 765 765 763 761 754 753 752 751 754 753 757 754 728 710 708 708 707 702 704 710 711 715 715 712 711 708 712 719 725 729 728 733 740 738 734 737 742 737 724 721 728 730 729 734 735 732 736 741 739 733 730 731 729 727 728 728 728 728 722 708 709 735 738 719 717 716 706 704 705 703 706 708 711 720 729 738 744 746 745
782 780 777 776 774 770 769 767 764 765 763 760 759 754 754 753 752 754 754 765 761 728 709 706 703 700 696 701 705 705 717 717 705 705 706 708 711 717 726 727 727 733 731 728 731 733 727 719 718 724 727 727 731 732 726 726 737 741 730 722 722 724 726 728 731 737 743 738 716 710 736 746 728 719 717 710 710 709 706 707 710 716 726 735 742 746 747 748
781 779 777 776 773 772 771 767 765 765 762 759 756 755 755 752 753 752 757 774 759 718 706 706 700 698 695 696 696 707 724 715 702 703 702 706 709 711 725 728 726 727 721 723 734 729 718 717 718 718 722 727 729 729 721 718 733 737 723 718 723 723 725 727 730 737 738 732 722 714 724 743 742 726 715 711 715 715 709 709 713 721 731 737 742 745 745 746
780 778 777 775 773 774 773 770 768 764 762 760 756 757 755 752 754 754 765 779 746 704 701 703 696 695 693 691 693 703 712 705 708 708 697 703 709 711 725 726 724 725 715 723 740 727 711 715 718 715 720 725 722 719 713 713 725 726 716 717 722 722 722 721 726 733 730 732 740 727 721 743 750 729 716 715 718 719 713 712 719 728 735 740 742 743 743 745
778 776 775 773 771 772 771 771 769 764 761 758 758 759 755 755 756 757 774 774 733 702 701 699 697 697 694 695 697 701 702 702 709 704 695 703 707 708 721 720 719 723 716 720 730 720 709 708 708 710 717 719 713 708 706 711 719 716 713 717 718 719 719 718 724 728 729 740 749 734 725 745 752 731 723 726 724 721 714 714 723 730 736 740 741 743 743 746
777 775 774 772 770 770 770 769 765 761 760 758 760 758 756 759 759 769 784 764 727 708 700 699 702 699 698 703 704 703 704 705 704 699 700 706 706 707 713 712 714 721 720 718 720 715 705 699 699 703 709 708 706 704 703 708 712 711 714 719 722 723 720 721 721 722 738 751 745 732 725 740 753 738 729 733 730 721 713 719 731 736 739 741 740 742 743 745
774 773 772 771 769 769 770 767 762 761 760 760 760 757 758 760 763 779 776 743 722 711 700 704 704 697 701 708 710 707 707 707 703 703 708 709 713 715 716 717 719 724 727 725 721 714 706 703 702 699 698 700 704 707 706 704 707 712 717 723 732 733 729 732 728 726 750 761 742 727 722 736 753 742 729 731 727 719 714 721 736 740 740 741 740 741 743 745
772 770 769 768 767 767 766 763 760 761 760 760 760 759 762 767 771 776 759 734 726 713 702 708 703 696 701 705 707 707 708 710 704 704 708 711 719 721 721 726 726 733 740 734 728 721 712 707 703 699 696 697 707 715 713 709 709 714 719 726 741 748 747 751 747 742 753 753 735 725 727 739 747 735 726 726 722 718 714 716 730 739 740 741 741 741 743 745
768 766 765 764 763 762 761 760 760 761 760 760 761 760 766 776 774 762 750 742 729 708 702 706 698 696 700 704 709 705 705 710 704 703 705 707 718 720 718 719 718 730 739 732 731 731 724 712 702 704 702 696 706 719 723 720 716 718 722 729 742 754 762 765 756 751 753 746 729 721 730 743 744 734 727 723 721 720 717 719 727 735 741 743 742 742 742 744
765 763 761 760 760 759 758 759 759 760 761 761 763 765 771 778 766 749 746 742 725 709 706 704 699 699 699 705 712 707 710 713 702 701 707 711 721 723 720 718 714 720 727 730 732 731 735 730 712 709 707 700 703 711 715 715 713 713 711 718 733 742 753 761 755 753 754 746 732 726 735 746 748 741 728 720 722 722 723 729 732 736 741 742 742 743 744 745
762 761 759 758 759 758 757 759 759 760 762 762 765 770 774 773 760 749 745 735 723 716 710 703 701 704 703 702 704 702 712 720 712 708 710 713 723 723 719 718 714 716 724 735 733 724 733 731 708 700 700 697 702 702 700 709 717 712 703 714 729 727 731 745 748 746 746 747 743 741 745 741 736 734 725 721 727 729 730 733 737 742 743 742 744 745 746 748
761 759 758 757 757 757 757 758 758 760 761 763 769 772 769 762 753 747 738 726 723 720 716 714 709 710 713 707 702 699 702 712 718 721 715 711 717 718 714 711 709 711 719 729 727 722 731 726 702 697 698 693 697 698 695 707 721 718 714 720 720 709 716 737 747 741 741 753 756 752 751 741 734 736 734 731 735 738 740 739 741 747 746 745 747 747 749 751
760 758 757 756 754 755 756 756 757 759 760 765 772 770 761 752 745 739 731 724 723 719 723 730 719 712 719 718 710 704 702 708 717 722 721 718 720 719 715 711 706 705 708 715 719 716 723 725 706 699 704 695 689 693 693 696 706 717 722 717 709 708 713 726 743 748 750 759 761 756 756 752 752 754 750 751 750 746 746 747 747 750 751 751 751 750 752 753
760 758 756 753 752 754 755 756 757 759 761 767 772 766 757 750 742 736 731 727 725 724 729 736 724 712 717 722 718 708 704 711 717 717 720 726 726 720 721 721 711 704 702 707 715 711 714 728 715 698 704 699 687 695 704 697 694 704 710 705 710 728 732 731 742 753 758 762 762 762 761 760 764 762 758 767 768 755 752 754 754 756 757 756 755 754 754 755
761 760 756 752 752 753 754 756 756 758 764 770 772 765 754 748 741 734 731 729 727 728 730 730 722 716 716 718 719 713 706 711 719 720 723 734 733 720 722 724 714 709 707 706 712 708 708 727 726 703 698 700 696 702 714 711 699 697 702 703 707 721 731 734 738 742 751 762 768 772 772 770 768 760 757 767 768 759 757 759 760 761 761 760 758 757 758 758
760 761 758 752 752 753 753 754 757 761 767 769 767 761 751 744 737 729 726 725 724 724 725 723 721 721 719 715 716 717 712 711 719 726 729 735 733 722 720 722 717 714 710 708 712 709 707 719 727 712 700 707 713 710 709 712 708 705 712 715 713 716 721 729 734 731 738 758 772 778 781 779 770 758 757 763 763 759 758 759 762 763 761 760 759 758 759 760
759 761 758 751 751 753 752 757 760 763 765 764 760 755 748 741 735 727 722 721 719 717 716 717 720 720 718 717 718 719 717 714 716 724 729 731 731 727 721 719 720 718 714 715 717 718 718 719 721 719 713 718 723 711 700 703 704 705 710 712 712 718 725 736 743 733 729 747 760 766 779 785 775 763 758 760 761 761 759 760 763 764 763 763 762 761 762 763
760 760 755 750 752 752 754 759 759 757 759 759 754 749 744 739 735 730 726 721 717 713 712 713 717 717 714 715 716 716 717 717 716 721 726 726 726 728 721 715 718 718 720 724 722 718 720 720 718 718 717 717 716 706 697 699 699 698 700 701 703 712 724 741 750 739 734 748 754 758 773 779 771 765 760 758 760 761 762 764 764 765 765 765 765 765 765 766
759 757 751 750 751 750 755 761 758 755 755 752 748 745 741 738 737 733 730 727 721 717 719 720 718 717 715 715 717 717 718 717 714 717 723 723 722 720 716 714 718 719 722 728 724 716 718 724 726 724 718 712 708 703 697 698 704 707 708 705 705 711 716 726 735 734 741 755 758 762 776 776 768 767 764 761 761 760 764 769 769 766 766 766 766 767 767 768
759 755 751 750 749 749 756 762 761 759 756 752 750 747 742 739 739 738 736 735 729 725 727 727 723 722 720 717 719 721 722 721 715 713 719 722 720 716 713 714 718 722 726 727 723 719 723 732 734 735 733 727 723 722 717 714 719 724 723 716 713 715 713 715 723 730 742 753 751 757 774 776 769 768 767 767 768 765 767 771 770 766 766 768 769 770 771 772
759 755 750 749 748 749 755 758 759 760 758 758 757 753 749 746 742 741 739 736 733 730 730 727 723 723 722 721 723 723 721 722 718 714 715 717 717 714 713 714 717 721 724 721 716 718 728 735 736 740 747 746 745 745 740 734 731 731 730 723 719 720 719 718 724 733 744 752 751 757 772 776 772 770 771 774 775 773 771 771 768 765 766 768 770 774 776 777
760 757 753 752 750 751 754 754 755 759 760 762 761 757 755 754 747 741 738 737 736 734 732 728 724 726 726 726 730 728 722 719 719 718 718 719 718 714 711 711 714 718 720 720 718 720 731 736 735 741 747 745 744 744 738 735 737 738 737 733 729 728 724 722 727 734 743 753 759 762 767 774 777 775 775 777 776 774 773 772 771 770 770 771 774 776 779 780
760 758 756 756 756 755 757 756 757 759 759 760 763 760 757 756 750 745 742 741 740 737 735 734 733 736 737 735 737 738 732 725 725 727 727 726 722 716 712 712 715 716 718 720 720 724 736 742 738 742 746 739 736 738 735 735 739 740 739 740 740 737 732 731 735 736 737 747 761 764 764 773 780 777 775 776 774 773 774 774 774 774 774 776 779 781 783 786
758 756 753 755 759 760 760 759 758 758 758 759 761 760 758 757 755 752 748 744 743 742 743 744 743 743 744 741 742 746 742 736 736 736 735 734 729 722 720 720 720 720 720 720 719 723 737 743 738 742 747 739 734 736 733 734 741 742 740 743 745 743 741 743 742 736 731 740 758 765 767 775 779 777 776 775 772 772 773 774 774 775 777 780 783 786 790 793
757 757 754 755 758 758 757 757 756 757 760 760 761 761 761 761 760 757 752 750 752 750 749 751 749 746 746 743 743 748 748 746 748 744 739 739 736 730 729 728 726 728 728 726 726 730 736 739 738 742 746 742 738 737 733 736 746 747 742 744 748 748 749 750 747 739 734 744 758 765 771 778 778 777 778 775 772 770 772 775 776 778 781 784 787 790 794 797
761 762 759 758 759 755 752 753 754 758 760 761 763 764 762 763 765 761 753 753 758 756 752 753 752 748 748 745 744 749 749 747 750 746 741 741 739 732 731 730 732 737 736 733 737 743 745 745 743 742 743 744 741 739 737 739 747 750 748 749 752 751 751 755 756 751 747 755 762 766 774 780 778 777 777 774 771 771 775 780 782 784 787 788 791 795 798 801
764 763 761 763 763 755 752 753 754 758 762 763 765 765 764 764 765 763 757 753 756 758 756 755 753 749 748 747 747 750 747 744 745 741 737 738 738 733 729 726 728 734 735 732 739 747 750 752 751 746 747 748 745 746 747 741 743 753 759 763 762 756 756 761 763 762 761 764 766 770 778 781 777 775 775 774 774 778 783 787 790 792 794 795 798 802 804 807
764 763 761 765 765 756 752 756 757 760 764 763 762 763 765 764 762 762 762 757 754 757 756 754 754 752 752 751 751 749 745 742 740 735 732 732 730 728 725 720 717 723 731 736 740 746 750 754 757 756 755 754 751 750 745 741 751 766 772 773 769 762 759 761 763 767 770 769 770 774 779 779 774 773 777 781 784 788 792 795 797 799 801 802 805 806 808 810